Skip Page Navigation
NASA JPL Caltech
NASA Logo - Jet Propulsion Laboratory + View the NASA Portal
+ Center for Near-Earth Object Studies
JPL Home Earth Solar System Stars & Galaxies Technology
JPL Solar System Dynamics
BODIES ORBITS EPHEMERIDES TOOLS PHYSICAL DATA DISCOVERY FAQ SITE MAP
JPL Small-Body Database Browser
Search: [ help ]  
5695 Remillieux (4577 P-L)
Classification: Main-belt Asteroid          SPK-ID: 2005695
Ephemeris | Orbit Diagram | Orbital Elements | Mission Design | Physical Parameters | Discovery Circumstances ]

[ show orbit diagram ]
Orbital Elements at Epoch 2459000.5 (2020-May-31.0) TDB
Reference: JPL 36 (heliocentric ecliptic J2000)
 Element Value Uncertainty (1-sigma)   Units 
e .1374974287859357 2.9809e-08  
a 2.648457085387309 1.0321e-08 au
q 2.284301045896661 7.9173e-08 au
i 12.702289666098 3.8901e-06 deg
node 174.0507904422846 1.5549e-05 deg
peri 273.0650959129079 2.1932e-05 deg
M 239.0652614778819 1.7272e-05 deg
tp 2459529.354746245462
(2021-Nov-10.85474625)
7.6687e-05 TDB
period 1574.301238626698
4.31
9.2023e-06
2.519e-08
d
yr
n .2286728811279073 1.3367e-09 deg/d
Q 3.012613124877957 1.174e-08 au
  Orbit Determination Parameters
   # obs. used (total)      2137  
   data-arc span      25612 days (70.12 yr)  
   first obs. used      1950-06-18  
   last obs. used      2020-08-01  
   planetary ephem.      DE431  
   SB-pert. ephem.      SB431-N16  
   condition code      0  
   norm. resid. RMS      .4552  
   source      ORB  
   producer      Otto Matic  
   solution date      2020-Aug-24 23:31:28  

Additional Information
 Earth MOID = 1.34216 au 
 Jupiter MOID = 2.27031 au 
 T_jup = 3.343 
[ show covariance matrix ]

Ephemeris | Orbit Diagram | Orbital Elements | Mission Design | Physical Parameters | Discovery Circumstances ]

Physical Parameter Table
Parameter Symbol Value Units Sigma Reference Notes
absolute magnitude H 12.9   n/a MPO347570  
diameter diameter 7.087 km 0.098 urn:nasa:pds:neowise_diameters_albedos::2.0[mainbelt] (http://adsabs.harvard.edu/abs/2011ApJ...741...68M)  
geometric albedo albedo 0.320   0.025 urn:nasa:pds:neowise_diameters_albedos::2.0[mainbelt] (http://adsabs.harvard.edu/abs/2011ApJ...741...68M)  

5695 Remillieux (4577 P-L)          Discovered 1960-Sep-24 by van Houten and Gehrels at Palomar
Reference: DISCOVERY.DBLast Updated: 2003-08-29

Alternate Designations
 4577 P-L = 1990 QK1 
Ephemeris | Orbit Diagram | Orbital Elements | Mission Design | Physical Parameters | Discovery Circumstances ]
ABOUT SSD CREDITS/AWARDS PRIVACY/COPYRIGHT GLOSSARY LINKS
FirstGov 2020-Sep-18 11:33 UT
(server date/time)  
NASA Home Page
Site Manager:   Ryan S. Park
Webmaster  Alan B. Chamberlin